Location: ???? ?????????
(31.1304°N, 31.7111°E)
Time: 17:55:22
(UTC+00:00)

Delta 142 - Pass Details

Date: 29 October 2020
Orbit: 548 x 1588 km, 28.4° (Epoch: 30 November)

Event Time Altitude Azimuth Distance (km) Brightness Sun altitude
Rises 15:32:19 0° 269° (W) 2,726 9.0 -6.1°
Reaches altitude 10° 15:34:28 10° 265° (W) 1,876 7.8 -6.6°
Maximum altitude 15:38:38 56° 187° (S) 756 4.1 -7.4°
Drops below altitude 10° 15:43:40 10° 109° (ESE) 2,256 5.9 -8.5°
Enters shadow 15:44:29 - 108° (ESE) 2,576 6.2 -8.7°
